Weather History for West Palm Beach, FL

Change the Weather History Date:

Tuesday, March 4, 2014

  Actual Average Record
Temperature  
Mean Temperature 70 °F 69 °F  
Max Temperature 80 °F 78 °F 92 °F (2003)
Min Temperature 60 °F 61 °F 37 °F (1927)
Degree Days  
Heating Degree Days 0 1  
Month to date heating degree days 0 4  
Since 1 July heating degree days 115 209  
Cooling Degree Days 5 6  
Month to date cooling degree days 19 22  
Year to date cooling degree days 365 257  
Growing Degree Days 20 (Base 50)    
Moisture  
Dew Point 62 °F    
Average Humidity 78    
Maximum Humidity 97    
Minimum Humidity 58    
Precipitation  
Precipitation 0.00 in 0.13 in 0.96 in (1948)
Month to date precipitation 0.00 0.50  
Year to date precipitation 11.48 6.45  
Snow  
Snow 0.00 in - - ()
Month to date snowfall 0.0  
Since 1 July snowfall 0.0  
Snow Depth 0.00 in    
Sea Level Pressure  
Sea Level Pressure 30.02 in    
Wind  
Wind Speed 7 mph (ENE)    
Max Wind Speed 14 mph    
Max Gust Speed 18 mph    
Visibility 10 miles    
Events      
T = Trace of Precipitation, MM = Missing Value Source: NWS Daily Summary

Daily Weather History Graph

Daily Weather History Graph

Search for Another Location

Airport:

Trip Planner

Search our weather history database for the weather conditions in past years. The results will help you decide how hot, cold, wet, or windy it might be!

Date:

Astronomy

Mar. 04, 2014 Rise Set
Actual Time 6:41 AM EST 6:23 PM EST
Civil Twilight 6:17 AM EST 6:46 PM EST
Nautical Twilight 5:51 AM EST 7:13 PM EST
Astronomical Twilight 5:24 AM EST 7:40 PM EST
Moon 8:49 AM EST (3/4) 10:02 PM EST (3/4)
Length of Visible Light 12h 28m
Length of Day
11h 42m
Waxing Crescent, 14% of the Moon is Illuminated
Mar 4
Waxing Crescent
Mar 8
First Quarter
Mar 16
Full
Mar 23
Last Quarter
Mar 30
New

Hourly Weather History & Observations

Time (EST) Temp. Dew Point Humidity Pressure Visibility Wind Dir Wind Speed Gust Speed Precip Events Conditions
12:53 AM 66.0 °F 59.0 °F 78% 30.02 in 10.0 mi Calm Calm - N/A   Clear
1:53 AM 64.0 °F 59.0 °F 84% 30.01 in 10.0 mi Calm Calm - N/A   Clear
2:53 AM 62.1 °F 59.0 °F 90% 30.00 in 10.0 mi West 3.5 mph - N/A   Clear
3:53 AM 62.1 °F 59.0 °F 90% 29.99 in 10.0 mi West 3.5 mph - N/A   Clear
4:53 AM 61.0 °F 59.0 °F 93% 29.99 in 10.0 mi West 3.5 mph - N/A   Clear
5:53 AM 61.0 °F 59.0 °F 93% 30.01 in 10.0 mi WNW 3.5 mph - N/A   Clear
6:53 AM 62.1 °F 60.1 °F 93% 30.03 in 10.0 mi NW 3.5 mph - N/A   Scattered Clouds
7:53 AM 66.0 °F 63.0 °F 90% 30.06 in 10.0 mi NW 4.6 mph - N/A   Scattered Clouds
8:53 AM 72.0 °F 63.0 °F 73% 30.07 in 10.0 mi NNW 8.1 mph - N/A   Scattered Clouds
9:53 AM 75.9 °F 62.1 °F 62% 30.07 in 10.0 mi North 6.9 mph - N/A   Scattered Clouds
10:53 AM 78.1 °F 62.1 °F 58% 30.06 in 10.0 mi NE 11.5 mph - N/A   Scattered Clouds
11:53 AM 77.0 °F 62.1 °F 60% 30.04 in 10.0 mi ENE 8.1 mph - N/A   Scattered Clouds
12:53 PM 79.0 °F 63.0 °F 58% 30.02 in 10.0 mi NNE 9.2 mph - N/A   Scattered Clouds
1:53 PM 78.1 °F 62.1 °F 58% 30.01 in 10.0 mi East 10.4 mph - N/A   Scattered Clouds
2:53 PM 79.0 °F 62.1 °F 56% 29.99 in 10.0 mi East 8.1 mph - N/A   Scattered Clouds
3:53 PM 79.0 °F 62.1 °F 56% 29.98 in 10.0 mi East 10.4 mph - N/A   Partly Cloudy
4:53 PM 78.1 °F 63.0 °F 60% 29.98 in 10.0 mi East 11.5 mph - N/A   Partly Cloudy
5:53 PM 75.9 °F 63.0 °F 64% 29.99 in 10.0 mi East 11.5 mph - N/A   Partly Cloudy
6:53 PM 75.0 °F 64.0 °F 69% 30.00 in 10.0 mi ESE 9.2 mph - N/A   Partly Cloudy
7:53 PM 73.9 °F 64.0 °F 71% 30.01 in 10.0 mi SE 5.8 mph - N/A   Partly Cloudy
8:53 PM 73.0 °F 64.0 °F 73% 30.02 in 10.0 mi SE 5.8 mph - N/A   Clear
9:53 PM 73.9 °F 63.0 °F 68% 30.02 in 10.0 mi ESE 8.1 mph - N/A   Partly Cloudy
10:53 PM 73.0 °F 63.0 °F 71% 30.02 in 10.0 mi SSE 8.1 mph - N/A   Partly Cloudy
11:53 PM 73.0 °F 64.0 °F 73% 30.02 in 10.0 mi SSE 8.1 mph - N/A   Partly Cloudy